Starlink 32040

operational
NORAD ID: 60109 Int'l Des: 2024-117 Owner: SPXS Country: US Constellation: starlink
LEOCIRCULAR

Starlink 32040について

説明を読み込み中...

リアルタイム位置

3D地球を読み込み中...

次回通過

高度履歴

Altitude vs Time

uPlot chart will show altitude changes over time

軌道要素

1 60109U 24117U 25304.24986498 -.00001886 00000-0 -51633-4 0 9992
2 60109 53.1607 278.0076 0001477 93.5519 266.5650 15.30156258 77078
Epoch: Oct 31, 2025 • Age: 14 hours

現在のステータス

高度 490.5 km
速度 7.62 km/s
衛星直下点 -42.92°S, 165.27°E
打ち上げ日 Jun 23, 2024
運用期間 1.3 years
タイプ internet

技術仕様

分類 Payload
質量 730.00 kg
乾燥質量 700.00 kg
総質量 730.00 kg
長さ 0.30 m
直径 4.10 m
スパン 29.00 m
形状 Box + pan
製造者 SPXS
バスタイプ Starlink V2M
フェーズステータス In Orbit
所有者/国 SPXS/US

大規模コンステレーション

Loading constellations...